Location: *
(32.8140°S, 174.6161°E)
Time: 00:17:30
(UTC+00:00)

H-2A R/B - Pass Details

Date: 10 December 2019
Orbit: 187 x 17149 km, 31.9° (Epoch: 17 January)

Event Time Altitude Azimuth Distance (km) Brightness Sun altitude
Exits shadow 15:38:50 16° 270° (W) 2,026 3.8 -15.9°
Maximum altitude 15:43:05 86° 358° (N) 1,501 3.4 -15.3°
Drops below altitude 10° 16:11:23 10° 82° (E) 10,950 8.6 -10.6°
Sets 16:33:51 0° 80° (E) 16,166 9.5 -6.7°
